Location: *
(51.1248°S, 108.4023°W)
Time: 03:13:56
(UTC+00:00)

Cosmos 2278 Rocket - Pass Details

Date: 24 October 2021
Orbit: 841 x 845 km, 71.0° (Epoch: 01 December)

Event Time Altitude Azimuth Distance (km) Brightness Sun altitude
Exits shadow 09:56:00 - 254° (WSW) 3,415 5.1 -16.1°
Reaches altitude 10° 10:00:01 10° 226° (SW) 2,495 4.6 -15.6°
Maximum altitude 10:02:32 13° 200° (SSW) 2,298 4.8 -15.3°
Drops below altitude 10° 10:05:03 10° 173° (S) 2,500 5.4 -15.1°
Sets 10:09:08 0° 145° (SE) 3,439 7.0 -14.6°
